Flag for Canada Weather past 2 weeks in Peterborough, Ontario, Canada

Now
46 °F

Overcast.


Feels Like: 42 °F
Forecast: 42 / 64 °F
Wind: 9 mph from Northwest

Location: Peterborough Airport

Current Time: Apr 28, 2015 at 12:38:27 AM

Latest Report: Apr 28, 2015 at 12:00 AM


Visibility: 9 mi

Pressure: 29.99 "Hg

Humidity: 71%

Dew point: 37 °F

Location of PeterboroughLocation

Historic Weather in Peterborough — Graph

°F

Peterborough temperature yesterday

Maximum temperature yesterday: 55 °F (at 4:00 PM)
Minimum temperature yesterday: 39 °F (at 5:00 AM)
Average temperature yesterday: 47 °F

Past Weeks' High & Low Weather Summary

 TemperatureHumidityPressure
High68 °F (Apr 13, 2:00 PM)100% (Apr 13, 2:00 AM)30.44 "Hg (Apr 13, 2:00 AM)
Low25 °F (Apr 25, 6:00 AM)19% (Apr 18, 4:00 PM)29.42 "Hg (Apr 20, 4:51 PM)
Average45 °F69%29.92 "Hg
* Reported Midnight between Apr 12 and Apr 13 — Apr 27 11:00 PM, Peterborough, Weather by CustomWeather, © 2015

Note: Actual official high and low records may vary slightly from our data, if they occured in-between our weather recording intervals... More about our weather records

Advertising

Peterborough weather history for previous 24 hours

 ConditionsComfort  
Time TempWeatherWind HumidityBarometerVisibility
11:00 PM
Mon, Apr 27
46 °FPassing clouds.9 mph71%29.98 "Hg9 mi
10:00 PM48 °FPassing clouds.8 mph66%29.96 "Hg9 mi
9:00 PM50 °FSunny.14 mph62%29.95 "Hg9 mi
8:00 PM52 °FOvercast.12 mph54%29.92 "Hg9 mi
7:00 PM54 °FOvercast.10 mph51%29.90 "Hg9 mi
6:00 PM55 °FMostly cloudy.14 mph47%29.89 "Hg9 mi
5:00 PM54 °FLight rain. Mostly cloudy.10 mph54%29.88 "Hg9 mi
4:54 PM54 °FLight rain. Overcast.12 mph58%29.87 "Hg9 mi
4:00 PM55 °FMostly cloudy.10 mph51%29.86 "Hg9 mi
3:00 PM54 °FCloudy.8 mph54%29.87 "Hg9 mi
2:00 PM52 °FOvercast.8 mph58%29.87 "Hg9 mi
1:00 PM50 °FOvercast.13 mph67%29.86 "Hg9 mi
12:00 PM48 °FMostly cloudy.8 mph66%29.85 "Hg9 mi
11:00 AM46 °FMostly cloudy.9 mph71%29.85 "Hg9 mi
10:00 AM46 °FOvercast.13 mph71%29.84 "Hg9 mi
9:00 AM41 °FOvercast.12 mph81%29.83 "Hg9 mi
8:00 AM39 °FMostly cloudy.10 mph81%29.83 "Hg9 mi
7:00 AM39 °FMostly cloudy.8 mph81%29.82 "Hg9 mi
6:53 AM39 °FMostly cloudy.9 mph81%29.82 "Hg9 mi
6:00 AM39 °FMostly cloudy.8 mph81%29.80 "Hg9 mi
5:00 AM39 °FMostly cloudy.10 mph81%29.79 "Hg9 mi
4:00 AM41 °FOvercast.9 mph81%29.78 "Hg9 mi
3:01 AM41 °FMostly cloudy.6 mph81%29.78 "Hg9 mi
2:00 AM43 °FPassing clouds.8 mph76%29.78 "Hg9 mi
1:00 AM43 °FOvercast.7 mph76%29.78 "Hg9 mi
12:00 AM45 °FOvercast.7 mph71%29.78 "Hg9 mi
Weather by CustomWeather, © 2015

See weather overviewHow to use our weather pages